Location: Campolattaro
(41.2833°N, 14.7333°E)
Time: 06:49:59
(UTC+00:00)

ISS - Pass Details

Date: 19 May 2025
Orbit: 415 x 417 km, 51.6° (Epoch: 14 June)

Event Time Altitude Azimuth Distance (km) Brightness Sun altitude
Rises 20:15:04 0° 309° (NW) 2,361 1.6 -18.1°
Reaches altitude 10° 20:17:34 10° 328° (NNW) 1,495 0.3 -18.4°
Maximum altitude 20:20:05 19° 17° (NNE) 1,056 -1.4 -18.7°
Enters shadow 20:22:04 13° 58° (ENE) 1,345 -1.3 -18.9°
